Cortland, IL

12:18 AM CDT on August 29, 2016 (GMT -0500)
De Kalb Taylor Municipal

Weather History for KDKB - April, 2014

Change the Weather History Date:

Monday, April 7, 2014

  Actual Average (KARR) Record (KARR)
Temperature  
Mean Temperature 44 °F 46 °F  
Max Temperature 56 °F 57 °F 80 °F (2001)
Min Temperature 33 °F 34 °F 21 °F (2007)
Degree Days  
Heating Degree Days 20 19  
Month to date heating degree days 144  
Since 1 July heating degree days 6152  
Cooling Degree Days 0 0  
Month to date cooling degree days 0  
Year to date cooling degree days 0  
Moisture  
Dew Point 29 °F    
Average Humidity 57    
Maximum Humidity 86    
Minimum Humidity 27    
Precipitation  
Precipitation 0.00 in 0.11 in 0.53 in (2002)
Month to date precipitation 0.71  
Year to date precipitation 6.03  
Sea Level Pressure  
Sea Level Pressure 29.75 in    
Wind  
Wind Speed 6 mph (NE)    
Max Wind Speed 17 mph    
Max Gust Speed 23 mph    
Visibility 10 miles    
Events Rain    
T = Trace of Precipitation, MM = Missing Value Source: NWS Daily Summary

Daily Weather History Graph

Daily Weather History Graph

Search for Another Location

Airport or City:

Trip Planner

Search our weather history database for the weather conditions in past years. The results will help you decide how hot, cold, wet, or windy it might be!

Date:

Astronomy

Apr. 07, 2014 Rise Set
Actual Time 6:27 AM CDT 7:27 PM CDT
Civil Twilight 5:59 AM CDT 7:55 PM CDT
Nautical Twilight 5:25 AM CDT 8:29 PM CDT
Astronomical Twilight 4:49 AM CDT 9:05 PM CDT
Moon 12:20 PM CDT (4/7) 2:06 AM CDT (4/7)
Length of Visible Light 13h 56m
Length of Day
12h 59m
First Quarter, 53% of the Moon is Illuminated
Apr 7
First Quarter
Apr 15
Full
Apr 22
Last Quarter
Apr 29
New
May 6
First Quarter

Hourly Weather History & Observations

Time (CDT) Temp. Windchill Dew Point Humidity Pressure Visibility Wind Dir Wind Speed Gust Speed Precip Events Conditions
12:15 AM 39.2 °F 35.9 °F 30.7 °F 72% 29.95 in 10.0 mi SSE 4.6 mph - N/A   Clear
12:35 AM 38.7 °F 36.3 °F 30.7 °F 73% 29.94 in 10.0 mi SE 3.5 mph - N/A   Clear
12:55 AM 38.3 °F 35.9 °F 31.1 °F 75% 29.94 in 10.0 mi SE 3.5 mph - N/A   Clear
1:15 AM 38.5 °F 36.1 °F 30.9 °F 74% 29.93 in 10.0 mi East 3.5 mph - N/A   Clear
1:35 AM 36.1 °F 32.3 °F 31.1 °F 82% 29.91 in 10.0 mi East 4.6 mph - N/A   Clear
1:55 AM 36.7 °F 32.9 °F 31.1 °F 80% 29.90 in 10.0 mi East 4.6 mph - N/A   Clear
2:15 AM 37.4 °F 33.8 °F 30.9 °F 77% 29.89 in 10.0 mi East 4.6 mph - N/A   Clear
2:35 AM 35.4 °F 32.6 °F 30.9 °F 84% 29.89 in 10.0 mi East 3.5 mph - N/A   Clear
2:55 AM 35.2 °F 32.4 °F 30.9 °F 84% 29.88 in 10.0 mi ENE 3.5 mph - N/A   Clear
3:15 AM 34.2 °F 30.0 °F 30.4 °F 86% 29.87 in 10.0 mi ENE 4.6 mph - N/A   Clear
3:35 AM 34.2 °F 30.0 °F 30.2 °F 85% 29.86 in 10.0 mi ENE 4.6 mph - N/A   Clear
3:55 AM 34.2 °F 29.0 °F 29.5 °F 83% 29.85 in 10.0 mi ENE 5.8 mph - N/A   Clear
4:15 AM 33.1 °F 28.7 °F 29.1 °F 85% 29.84 in 10.0 mi NE 4.6 mph - N/A   Clear
4:35 AM 33.3 °F 27.9 °F 28.9 °F 84% 29.83 in 10.0 mi NE 5.8 mph - N/A   Clear
4:55 AM 33.6 °F 28.4 °F 28.9 °F 83% 29.82 in 10.0 mi NE 5.8 mph - N/A   Clear
5:15 AM 33.3 °F 28.9 °F 28.4 °F 82% 29.83 in 10.0 mi ENE 4.6 mph - N/A   Clear
5:35 AM 33.8 °F 29.6 °F 29.1 °F 83% 29.83 in 10.0 mi ENE 4.6 mph - N/A   Clear
5:55 AM 35.6 °F 32.8 °F 29.3 °F 78% 29.84 in 10.0 mi East 3.5 mph - N/A   Clear
6:15 AM 36.7 °F 32.0 °F 29.1 °F 74% 29.87 in 10.0 mi East 5.8 mph - N/A   Clear
6:35 AM 35.1 °F 32.2 °F 29.3 °F 80% 29.87 in 10.0 mi East 3.5 mph - N/A   Clear
7:15 AM 34.2 °F 30.0 °F 29.3 °F 82% 29.85 in 7.0 mi NE 4.6 mph - N/A   Clear
7:35 AM 36.5 °F 31.8 °F 29.8 °F 77% 29.84 in 7.0 mi NNE 5.8 mph - N/A   Clear
7:55 AM 36.1 °F 33.5 °F 31.1 °F 82% 29.84 in 7.0 mi ENE 3.5 mph - N/A   Clear
8:15 AM 37.8 °F 34.2 °F 32.0 °F 80% 29.82 in 7.0 mi NE 4.6 mph - N/A   Clear
8:35 AM 39.0 °F 35.7 °F 32.7 °F 78% 29.82 in 7.0 mi NE 4.6 mph - N/A   Clear
8:55 AM 42.3 °F 39.4 °F 33.1 °F 70% 29.81 in 10.0 mi NE 4.6 mph - N/A   Clear
9:15 AM 45.3 °F 41.1 °F 32.7 °F 61% 29.81 in 10.0 mi ENE 8.1 mph - N/A   Clear
9:35 AM 45.5 °F 41.3 °F 32.7 °F 61% 29.79 in 10.0 mi NE 8.1 mph - N/A   Clear
9:55 AM 46.2 °F 42.7 °F 33.1 °F 60% 29.79 in 10.0 mi NNE 6.9 mph - N/A   Clear
10:15 AM 47.8 °F - 33.4 °F 57% 29.78 in 10.0 mi NNE 9.2 mph - N/A   Clear
10:35 AM 49.5 °F - 33.3 °F 54% 29.77 in 10.0 mi NE 10.4 mph - N/A   Clear
10:55 AM 51.1 °F - 33.3 °F 51% 29.76 in 10.0 mi NNE 9.2 mph - N/A   Clear
11:15 AM 51.8 °F - 32.4 °F 48% 29.74 in 10.0 mi NNE 12.7 mph 16.1 mph N/A   Clear
11:35 AM 53.8 °F - 31.6 °F 43% 29.73 in 10.0 mi NE 13.8 mph - N/A   Clear
11:55 AM 54.0 °F - 29.3 °F 39% 29.72 in 10.0 mi NE 17.3 mph - N/A   Clear
12:15 PM 55.2 °F - 29.3 °F 37% 29.70 in 10.0 mi NE 15.0 mph - N/A   Clear
12:35 PM 55.8 °F - 27.7 °F 34% 29.69 in 10.0 mi NNE 16.1 mph 23.0 mph N/A   Clear
12:55 PM 55.8 °F - 25.5 °F 31% 29.70 in 10.0 mi NE 12.7 mph 18.4 mph N/A   Clear
1:15 PM 55.2 °F - 27.9 °F 35% 29.69 in 10.0 mi East 10.4 mph - N/A   Clear
1:35 PM 56.7 °F - 26.8 °F 32% 29.68 in 10.0 mi NE 15.0 mph - N/A   Clear
1:55 PM 56.7 °F - 26.2 °F 31% 29.67 in 10.0 mi NE 8.1 mph 18.4 mph N/A   Clear
2:15 PM 55.6 °F - 26.2 °F 32% 29.67 in 10.0 mi ENE 12.7 mph 17.3 mph N/A   Clear
2:35 PM 55.4 °F - 24.8 °F 31% 29.66 in 10.0 mi NE 10.4 mph 16.1 mph N/A   Clear
2:55 PM 55.6 °F - 24.6 °F 30% 29.66 in 10.0 mi NNE 13.8 mph 17.3 mph N/A   Clear
3:15 PM 55.4 °F - 21.4 °F 27% 29.66 in 10.0 mi NE 11.5 mph 17.3 mph N/A   Clear
3:35 PM 55.4 °F - 22.1 °F 27% 29.66 in 10.0 mi ENE 10.4 mph - N/A   Clear
3:55 PM 54.9 °F - 24.6 °F 31% 29.65 in 10.0 mi NE 8.1 mph - N/A   Clear
4:15 PM 54.0 °F - 25.0 °F 33% 29.65 in 10.0 mi NE 11.5 mph - N/A   Scattered Clouds
4:35 PM 53.6 °F - 25.2 °F 33% 29.65 in 10.0 mi NE 9.2 mph - N/A   Mostly Cloudy
4:55 PM 52.9 °F - 25.7 °F 35% 29.65 in 10.0 mi ENE 8.1 mph - N/A   Overcast
5:15 PM 52.7 °F - 25.7 °F 35% 29.65 in 10.0 mi ENE 5.8 mph - N/A   Overcast
5:35 PM 52.2 °F - 26.1 °F 36% 29.64 in 10.0 mi ENE 6.9 mph - N/A   Overcast
5:55 PM 51.8 °F - 26.8 °F 38% 29.64 in 10.0 mi NE 6.9 mph - N/A   Overcast
6:15 PM 51.1 °F - 27.5 °F 40% 29.64 in 10.0 mi NE 4.6 mph - N/A   Overcast
6:35 PM 50.2 °F - 28.8 °F 44% 29.63 in 10.0 mi NE 4.6 mph - N/A   Overcast
6:55 PM 49.3 °F - 28.6 °F 45% 29.63 in 10.0 mi NNE 4.6 mph - N/A   Overcast
7:15 PM 48.6 °F - 29.1 °F 47% 29.63 in 10.0 mi Calm Calm - N/A   Overcast
7:35 PM 47.5 °F - 28.6 °F 48% 29.63 in 10.0 mi NE 3.5 mph - N/A   Overcast
7:55 PM 47.7 °F - 29.5 °F 49% 29.63 in 10.0 mi Calm Calm - N/A   Overcast
8:15 PM 48.4 °F - 28.6 °F 46% 29.64 in 7.0 mi NNE 3.5 mph - N/A   Overcast
8:35 PM 47.5 °F - 30.0 °F 51% 29.65 in 10.0 mi Calm Calm - N/A   Overcast
8:55 PM 48.4 °F - 28.6 °F 46% 29.66 in 10.0 mi Calm Calm - N/A   Overcast
9:15 PM 48.4 °F - 28.0 °F 45% 29.67 in 10.0 mi Calm Calm - N/A   Overcast
9:35 PM 47.5 °F - 28.8 °F 48% 29.67 in 10.0 mi Calm Calm - N/A   Overcast
9:55 PM 46.8 °F - 29.8 °F 52% 29.67 in 10.0 mi Calm Calm - N/A   Overcast
10:15 PM 47.7 °F - 28.0 °F 47% 29.66 in 10.0 mi Calm Calm - N/A   Overcast
10:35 PM 47.3 °F - 28.8 °F 49% 29.66 in 10.0 mi Calm Calm - N/A   Overcast
10:55 PM 45.0 °F - 31.5 °F 59% 29.66 in 10.0 mi Calm Calm - N/A   Overcast
11:15 PM 46.0 °F - 30.2 °F 54% 29.66 in 10.0 mi Calm Calm - N/A   Light Drizzle
11:35 PM 45.7 °F 42.0 °F 33.8 °F 63% 29.66 in 10.0 mi West 6.9 mph - N/A   Drizzle
11:55 PM 45.1 °F 40.8 °F 41.2 °F 86% 29.66 in 7.0 mi NW 8.1 mph - N/A Rain Light Rain